Location: Sungai Bunut
(2.6333°N, 113.7333°E)
Time: 15:23:35
(UTC+00:00)

Altair - Pass Details

Date: 07 December 2023
Orbit: 1501 x 1682 km, 47.2° (Epoch: 24 February)

Event Time Altitude Azimuth Distance (km) Brightness Sun altitude
Rises 08:51:00 0° 318° (NW) 4,622 10.2 18.5°
Reaches altitude 10° 08:53:59 10° 318° (NW) 3,642 9.8 17.9°
Maximum altitude 09:03:09 83° 231° (SW) 1,524 7.9 15.8°
Drops below altitude 10° 09:12:32 10° 143° (SE) 3,726 9.4 13.6°
Sets 09:15:38 0° 142° (SE) 4,733 9.9 12.9°
